This is the latest recevied weather packets stored in our database for station/object HB9HFD-13. If no packets are shown the sender has not sent any weather packets the latest 10 day(s).
| Time | Temp. | Humidity | Pressure | Rain* | Wind** | Luminosity | Snow |
|---|---|---|---|---|---|---|---|
| 1777565917 | 22.78° C | 40% | 1016.9 hPa | 0 mm | - | - | - |
| 1777565616 | 22.78° C | 41% | 1017.1 hPa | 0 mm | - | - | - |
| 1777565316 | 22.78° C | 41% | 1016.9 hPa | 0 mm | - | - | - |
| 1777565016 | 22.22° C | 41% | 1017 hPa | 0 mm | - | - | - |
| 1777564718 | 22.78° C | 41% | 1017 hPa | 0 mm | - | - | - |
| 1777564415 | 22.78° C | 40% | 1017 hPa | 0 mm | - | - | - |
| 1777564115 | 23.33° C | 39% | 1017 hPa | 0 mm | - | - | - |
| 1777563815 | 23.33° C | 40% | 1016.9 hPa | 0 mm | - | - | - |
| 1777563515 | 22.78° C | 41% | 1016.9 hPa | 0 mm | - | - | - |
| 1777563214 | 22.22° C | 40% | 1017 hPa | 0 mm | - | - | - |
| 1777562914 | 22.22° C | 42% | 1017 hPa | 0 mm | - | - | - |
| 1777562614 | 22.22° C | 42% | 1017 hPa | 0 mm | - | - | - |
| 1777562314 | 21.67° C | 43% | 1016.9 hPa | 0 mm | - | - | - |
| 1777562013 | 21.67° C | 44% | 1017 hPa | 0 mm | - | - | - |
| 1777561713 | 21.11° C | 45% | 1017 hPa | 0 mm | - | - | - |
| 1777561413 | 21.11° C | 44% | 1017.1 hPa | 0 mm | - | - | - |
| 1777561113 | 21.67° C | 45% | 1017 hPa | 0 mm | - | - | - |
| 1777560812 | 21.67° C | 45% | 1017 hPa | 0 mm | - | - | - |
| 1777560512 | 22.22° C | 42% | 1017 hPa | 0 mm | - | - | - |
| 1777560212 | 22.22° C | 44% | 1017 hPa | 0 mm | - | - | - |
| 1777559912 | 22.22° C | 43% | 1016.9 hPa | 0 mm | - | - | - |
| 1777559611 | 22.22° C | 45% | 1016.9 hPa | 0 mm | - | - | - |
| 1777559311 | 21.67° C | 43% | 1016.9 hPa | 0 mm | - | - | - |
| 1777559011 | 22.22° C | 43% | 1016.8 hPa | 0 mm | - | - | - |
| 1777558710 | 22.78° C | 41% | 1016.7 hPa | 0 mm | - | - | - |
* Rain latest hour (hover to see other rain measurements)
** Current wind speed in m/s (hover to see current wind gust speed)